Location: ??????????
(54.8537°N, 38.8755°E)
Time: 02:33:34
(UTC+00:00)

Vanguard 2 Rocket - Pass Details

Date: 21 September 2024
Orbit: 553 x 3298 km, 32.9° (Epoch: 10 October)

Event Time Altitude Azimuth Distance (km) Brightness Sun altitude
Rises 00:53:48 0° 249° (WSW) 4,802 - -19.2°
Reaches altitude 10° 00:57:22 10° 236° (SW) 4,208 - -18.8°
Exits shadow 01:01:12 19° 217° (SW) 3,875 9.5 -18.3°
Maximum altitude 01:06:16 25° 188° (S) 3,987 9.8 -17.7°
Drops below altitude 10° 01:18:29 10° 144° (SE) 5,892 11.1 -16.1°
Sets 01:24:52 0° 133° (SE) 7,160 11.8 -15.3°
